Location: Newark
(51.0500°N, 12.4500°E)
Time: 03:58:51
(UTC+00:00)

Tiros 1 - Pass Details

Date: 24 February 2020
Orbit: 630 x 664 km, 48.4° (Epoch: 04 April)

Event Time Altitude Azimuth Distance (km) Brightness Sun altitude
Rises 00:10:01 0° 205° (SSW) 2,927 - -47.6°
Reaches altitude 10° 00:12:55 10° 187° (S) 2,016 - -47.5°
Maximum altitude 00:16:07 19° 143° (SE) 1,522 - -47.3°
Drops below altitude 10° 00:19:19 10° 99° (E) 2,013 - -47.1°
Sets 00:22:12 0° 82° (E) 2,921 - -47.0°
